Date String (YYYY-MM-DD hh:mm:ss) UTC,Instrument flags,Ambient pressure (hPa),Sample flow (lpm),Bypass flow (lpm),Sample temperature (°C),Ambient temperature (°C),ASC tube jacket temperature (°C),LED temperature (°C),Box temperature (°C),Sample RH (%),Span deviation,Mass concentration (μg/m³),Mass concentration (μg/m³),Mass concentration (μg/m³)
DateTimeUTC,F1_M11,P_M11,Q1_M11,Q2_M11,T1_M11,T2_M11,T3_M11,T4_M11,T5_M11,U1_M11,ZSPAN_M11,X0_M11,X2_M11,X1_M11
2022-07-22 06:00:00,,0826.2,5.01,0.00,29.7,28.5,00.0,38.4,31.6,14.2,0000.0,0010.00,0004.24,0003.29
2022-07-22 06:01:00,,0826.2,4.99,0.00,29.7,28.6,00.0,38.4,31.7,14.1,0000.0,0010.23,0004.26,0003.29
2022-07-22 06:02:00,,0826.2,5.00,0.00,29.7,28.6,00.0,38.4,31.7,14.0,0000.0,0009.96,0004.22,0003.29
2022-07-22 06:03:00,,0826.2,5.00,0.00,29.7,28.3,00.0,38.4,31.7,13.9,0000.0,0010.65,0004.21,0003.29
2022-07-22 06:04:00,,0826.2,5.00,0.00,29.7,27.3,00.0,38.3,31.5,13.9,0000.0,0010.55,0004.21,0003.29
2022-07-22 06:05:00,,0826.2,4.99,0.00,29.7,26.9,00.0,38.3,31.4,13.8,0000.0,0010.26,0004.18,0003.31
2022-07-22 06:06:00,,0826.1,5.01,0.00,29.6,26.8,00.0,38.3,31.3,13.8,0000.0,0010.20,0004.15,0003.31
2022-07-22 06:07:00,,0826.2,4.99,0.00,29.5,27.0,00.0,38.3,31.2,14.0,0000.0,0010.13,0004.13,0003.30
2022-07-22 06:08:00,,0826.2,5.00,0.00,29.5,27.1,00.0,38.2,31.2,14.0,0000.0,0010.03,0004.08,0003.28
2022-07-22 06:09:00,,0826.2,5.00,0.00,29.4,27.3,00.0,38.2,31.2,14.0,0000.0,0009.99,0004.05,0003.26
2022-07-22 06:10:00,,0826.1,5.01,0.00,29.4,27.5,00.0,38.2,31.2,13.9,0000.0,0009.92,0004.03,0003.25
2022-07-22 06:11:00,,0826.1,5.00,0.00,29.4,27.7,00.0,38.2,31.3,14.0,0000.0,0010.13,0004.06,0003.25
2022-07-22 06:12:00,,0826.1,5.00,0.00,29.4,27.8,00.0,38.2,31.3,13.9,0000.0,0009.58,0004.07,0003.25
2022-07-22 06:13:00,,0826.2,5.00,0.00,29.5,28.0,00.0,38.2,31.4,13.9,0000.0,0009.52,0004.08,0003.24
2022-07-22 06:14:00,,0826.2,4.99,0.00,29.5,28.1,00.0,38.3,31.4,13.9,0000.0,0009.47,0004.09,0003.23
2022-07-22 06:15:00,,0826.2,5.01,0.00,29.5,28.2,00.0,38.3,31.4,13.9,0000.0,0009.39,0004.07,0003.23
2022-07-22 06:16:00,,0826.2,5.00,0.00,29.5,28.3,00.0,38.3,31.5,13.8,0000.0,0009.77,0004.09,0003.22
2022-07-22 06:17:00,,0826.1,5.01,0.00,29.5,28.4,00.0,38.3,31.5,13.7,0000.0,0009.71,0004.08,0003.21
2022-07-22 06:18:00,,0826.1,4.99,0.00,29.6,28.5,00.0,38.3,31.5,13.7,0000.0,0009.83,0004.07,0003.19
2022-07-22 06:19:00,,0826.1,5.00,0.00,29.6,28.5,00.0,38.3,31.6,13.7,0000.0,0010.54,0004.11,0003.19
2022-07-22 06:20:00,,0826.2,4.99,0.00,29.6,28.6,00.0,38.3,31.6,13.6,0000.0,0010.98,0004.11,0003.18
2022-07-22 06:21:00,,0826.2,5.00,0.00,29.7,28.7,00.0,38.4,31.7,13.7,0000.0,0011.00,0004.08,0003.17
2022-07-22 06:22:00,,0826.2,5.00,0.00,29.7,28.5,00.0,38.4,31.7,13.6,0000.0,0010.63,0004.01,0003.15
2022-07-22 06:23:00,,0826.2,4.99,0.00,29.7,27.5,00.0,38.3,31.5,13.4,0000.0,0010.08,0003.97,0003.14
2022-07-22 06:24:00,,0826.2,5.00,0.00,29.6,26.9,00.0,38.2,31.4,13.5,0000.0,0011.07,0003.95,0003.12
2022-07-22 06:25:00,,0826.2,5.01,0.00,29.6,26.8,00.0,38.2,31.3,13.5,0000.0,0011.05,0003.96,0003.10
2022-07-22 06:26:00,,0826.2,4.99,0.00,29.5,26.9,00.0,38.2,31.2,13.5,0000.0,0010.64,0003.91,0003.05
2022-07-22 06:27:00,,0826.1,5.00,0.00,29.4,27.1,00.0,38.2,31.2,13.6,0000.0,0010.32,0003.87,0003.00
2022-07-22 06:28:00,,0826.2,5.01,0.00,29.4,27.3,00.0,38.2,31.2,13.7,0000.0,0010.52,0003.85,0002.98
2022-07-22 06:29:00,,0826.2,5.01,0.00,29.4,27.5,00.0,38.2,31.2,13.7,0000.0,0011.13,0003.81,0002.97
2022-07-22 06:30:00,,0826.2,4.99,0.00,29.4,27.6,00.0,38.2,31.2,13.6,0000.0,0010.44,0003.78,0002.95
2022-07-22 06:31:00,,0826.2,5.00,0.00,29.4,27.8,00.0,38.2,31.3,13.7,0000.0,0010.74,0003.80,0002.93
2022-07-22 06:32:00,,0826.1,5.01,0.00,29.4,27.9,00.0,38.2,31.3,13.9,0000.0,0011.18,0003.81,0002.91
2022-07-22 06:33:00,,0826.2,5.00,0.00,29.4,28.0,00.0,38.2,31.3,14.3,0000.0,0011.67,0003.80,0002.89
2022-07-22 06:34:00,,0826.2,4.99,0.00,29.5,28.2,00.0,38.2,31.4,14.2,0000.0,0011.67,0003.81,0002.86
2022-07-22 06:35:00,,0826.2,5.01,0.00,29.5,28.3,00.0,38.2,31.4,14.2,0000.0,0010.80,0003.79,0002.86
2022-07-22 06:36:00,,0826.2,5.00,0.00,29.5,28.3,00.0,38.3,31.5,14.0,0000.0,0010.25,0003.79,0002.87
2022-07-22 06:37:00,,0826.1,5.00,0.00,29.6,28.4,00.0,38.3,31.5,13.9,0000.0,0010.42,0003.83,0002.89
2022-07-22 06:38:00,,0826.1,5.00,0.00,29.6,28.5,00.0,38.3,31.6,13.9,0000.0,0010.46,0003.87,0002.90
2022-07-22 06:39:00,,0826.1,5.01,0.00,29.6,28.6,00.0,38.3,31.6,13.8,0000.0,0010.21,0003.86,0002.90
2022-07-22 06:40:00,,0826.1,5.01,0.00,29.6,28.6,00.0,38.3,31.6,13.8,0000.0,0009.86,0003.86,0002.91
2022-07-22 06:41:00,,0826.1,4.99,0.00,29.7,28.7,00.0,38.4,31.7,13.8,0000.0,0010.16,0003.85,0002.92
2022-07-22 06:42:00,,0826.1,5.01,0.00,29.7,28.6,00.0,38.4,31.7,13.8,0000.0,0009.98,0003.84,0002.94
2022-07-22 06:43:00,,0826.2,5.00,0.00,29.7,27.8,00.0,38.3,31.6,13.8,0000.0,0009.72,0003.83,0002.95
2022-07-22 06:44:00,,0826.2,5.02,0.00,29.7,27.5,00.0,38.3,31.5,13.8,0000.0,0009.44,0003.83,0002.97
2022-07-22 06:45:00,,0826.2,5.00,0.00,29.6,27.4,00.0,38.3,31.4,14.0,0000.0,0009.38,0003.81,0002.98
2022-07-22 06:46:00,,0826.2,4.99,0.00,29.6,27.5,00.0,38.3,31.4,14.2,0000.0,0009.37,0003.80,0002.97
2022-07-22 06:47:00,,0826.2,5.00,0.00,29.6,27.6,00.0,38.3,31.4,14.2,0000.0,0009.31,0003.77,0002.97
2022-07-22 06:48:00,,0826.2,5.00,0.00,29.6,27.8,00.0,38.3,31.4,14.0,0000.0,0009.30,0003.75,0002.97
2022-07-22 06:49:00,,0826.1,5.00,0.00,29.6,27.9,00.0,38.3,31.4,13.9,0000.0,0009.33,0003.75,0002.98
2022-07-22 06:50:00,,0826.1,5.01,0.00,29.6,28.0,00.0,38.3,31.4,13.8,0000.0,0009.50,0003.77,0003.01
2022-07-22 06:51:00,,0826.2,5.00,0.00,29.6,28.1,00.0,38.3,31.5,13.7,0000.0,0010.07,0003.77,0003.01
2022-07-22 06:52:00,,0826.2,4.99,0.00,29.6,28.3,00.0,38.3,31.5,13.6,0000.0,0009.73,0003.78,0003.01
2022-07-22 06:53:00,,0826.1,5.01,0.00,29.6,28.4,00.0,38.4,31.5,13.5,0000.0,0009.10,0003.75,0003.02
2022-07-22 06:54:00,,0826.1,4.99,0.00,29.6,28.4,00.0,38.4,31.6,13.5,0000.0,0008.87,0003.75,0003.03
2022-07-22 06:55:00,,0826.1,5.00,0.00,29.7,28.5,00.0,38.4,31.6,13.5,0000.0,0008.64,0003.76,0003.05
2022-07-22 06:56:00,,0826.1,4.99,0.00,29.7,28.6,00.0,38.4,31.6,13.5,0000.0,0009.39,0003.78,0003.06
2022-07-22 06:57:00,,0826.1,5.00,0.00,29.7,28.6,00.0,38.4,31.7,13.4,0000.0,0009.94,0003.80,0003.07
2022-07-22 06:58:00,,0826.1,5.00,0.00,29.8,28.6,00.0,38.4,31.7,13.5,0000.0,0010.23,0003.82,0003.09
2022-07-22 06:59:00,,0826.1,4.99,0.00,29.8,27.8,00.0,38.4,31.6,13.4,0000.0,0010.23,0003.82,0003.10
